Weather History for Superior, WI

Change the Weather History Date:

Saturday, January 19, 2013

  Actual Average Record
Temperature  
Mean Temperature 16 °F -  
Max Temperature 32 °F 23 °F 45 °F (1981)
Min Temperature 1 °F 2 °F -33 °F (1963)
Degree Days  
Heating Degree Days 48    
Moisture  
Dew Point 10 °F    
Average Humidity 75    
Maximum Humidity 93    
Minimum Humidity 58    
Precipitation  
Precipitation 0.03 in - - ()
Sea Level Pressure  
Sea Level Pressure 29.79 in    
Wind  
Wind Speed 9 mph (WNW)    
Max Wind Speed 31 mph    
Max Gust Speed 39 mph    
Visibility 9 miles    
Events Snow    
Averages and records for this station are not official NWS values.
T = Trace of Precipitation, MM = Missing Value Source: NWS Daily Summary

Daily Weather History Graph

Daily Weather History Graph

Search for Another Location

Airport:

Trip Planner

Search our weather history database for the weather conditions in past years. The results will help you decide how hot, cold, wet, or windy it might be!

Date:

Astronomy

Jan. 19, 2013 Rise Set
Actual Time 7:45 AM CST 4:53 PM CST
Civil Twilight 7:11 AM CST 5:26 PM CST
Nautical Twilight 6:34 AM CST 6:04 PM CST
Astronomical Twilight 5:58 AM CST 6:40 PM CST
Moon 11:23 AM CST 1:14 AM CST
Length of Visible Light 10h 14m
Length of Day
9h 07m
First Quarter, 57% of the Moon is Illuminated
Jan 19
First Quarter
Jan 26
Full
Feb 3
Last Quarter
Feb 10
New
Feb 17
First Quarter

Hourly Weather History & Observations

Time (CST) Temp. Windchill Dew Point Humidity Pressure Visibility Wind Dir Wind Speed Gust Speed Precip Events Conditions
12:15 AM 19.4 °F 12.8 °F 16.2 °F 87% 29.78 in 10.0 mi SSW 4.6 mph - N/A   Overcast
12:35 AM 19.4 °F 12.8 °F 16.2 °F 87% 29.78 in 10.0 mi SW 4.6 mph - N/A   Overcast
12:55 AM 19.6 °F 14.5 °F 16.5 °F 88% 29.78 in 10.0 mi SW 3.5 mph - N/A   Overcast
1:15 AM 19.8 °F - 16.5 °F 87% 29.77 in 10.0 mi Calm Calm - N/A   Overcast
1:35 AM 19.9 °F - 16.7 °F 87% 29.76 in 5.0 mi Calm Calm - N/A Snow Light Snow
1:55 AM 19.8 °F - 16.9 °F 89% 29.76 in 4.0 mi Calm Calm - N/A Snow Light Snow
2:15 AM 19.9 °F - 16.9 °F 88% 29.77 in 7.0 mi Calm Calm - N/A   Overcast
2:35 AM 20.1 °F - 17.2 °F 89% 29.76 in 10.0 mi Calm Calm - N/A   Overcast
2:55 AM 20.3 °F - 17.4 °F 89% 29.76 in 10.0 mi Calm Calm - N/A   Overcast
3:15 AM 20.5 °F - 17.6 °F 89% 29.75 in 10.0 mi Calm Calm - N/A   Overcast
3:35 AM 20.8 °F - 18.1 °F 89% 29.73 in 10.0 mi Calm Calm - N/A   Overcast
3:55 AM 21.0 °F - 18.3 °F 89% 29.73 in 10.0 mi Calm Calm - N/A   Overcast
4:15 AM 21.2 °F - 18.3 °F 89% 29.72 in 10.0 mi Calm Calm - N/A   Overcast
4:35 AM 21.2 °F - 18.3 °F 89% 29.71 in 10.0 mi Calm Calm - N/A   Overcast
4:55 AM 21.2 °F - 18.3 °F 89% 29.70 in 10.0 mi Calm Calm - N/A   Overcast
5:15 AM 21.9 °F - 18.5 °F 87% 29.69 in 10.0 mi Calm Calm - N/A   Overcast
5:35 AM 22.1 °F - 18.5 °F 86% 29.68 in 10.0 mi Calm Calm - N/A   Overcast
5:55 AM 22.1 °F 15.9 °F 19.0 °F 88% 29.71 in 10.0 mi West 4.6 mph - N/A   Overcast
7:15 AM 21.4 °F - 18.7 °F 89% 29.67 in 10.0 mi Calm Calm - N/A   Overcast
8:15 AM 19.4 °F - 17.6 °F 93% 29.64 in 7.0 mi Calm Calm - N/A   Overcast
8:35 AM 19.4 °F - 17.4 °F 92% 29.64 in 10.0 mi Calm Calm - N/A   Mostly Cloudy
9:35 AM 21.2 °F 13.6 °F 18.1 °F 88% 29.62 in 10.0 mi SW 5.8 mph - N/A   Mostly Cloudy
9:55 AM 22.1 °F 12.0 °F 18.5 °F 86% 29.63 in 10.0 mi West 9.2 mph - N/A   Overcast
10:15 AM 23.0 °F 13.9 °F 19.4 °F 86% 29.63 in 10.0 mi WSW 8.1 mph - N/A   Overcast
10:35 AM 24.4 °F 14.9 °F 20.3 °F 84% 29.61 in 10.0 mi SW 9.2 mph - N/A   Overcast
11:15 AM 27.5 °F 18.0 °F 22.6 °F 82% 29.59 in 10.0 mi WSW 10.4 mph - N/A   Scattered Clouds
11:35 AM 28.8 °F 20.2 °F 23.5 °F 81% 29.59 in 10.0 mi West 9.2 mph - N/A   Mostly Cloudy
11:55 AM 30.9 °F 22.2 °F 24.4 °F 77% 29.59 in 10.0 mi West 10.4 mph 16.1 mph N/A   Overcast
12:15 PM 32.0 °F 21.2 °F 24.4 °F 74% 29.59 in 10.0 mi West 16.1 mph 27.6 mph N/A   Overcast
12:35 PM 32.0 °F 22.1 °F 24.4 °F 74% 29.58 in 10.0 mi West 13.8 mph 23.0 mph N/A   Overcast
12:55 PM 32.0 °F 21.6 °F 24.3 °F 73% 29.58 in 10.0 mi West 15.0 mph 23.0 mph N/A   Overcast
1:15 PM 32.7 °F 21.8 °F 23.9 °F 70% 29.57 in 10.0 mi West 17.3 mph 24.2 mph N/A   Overcast
1:35 PM 32.4 °F 21.7 °F 22.8 °F 68% 29.57 in 10.0 mi WNW 16.1 mph 25.3 mph N/A   Overcast
1:55 PM 32.0 °F 21.6 °F 22.8 °F 69% 29.57 in 10.0 mi NW 15.0 mph 25.3 mph N/A   Overcast
2:15 PM 28.0 °F 12.0 °F 20.8 °F 74% 29.60 in 10.0 mi NW 31.1 mph 35.7 mph N/A   Overcast
2:35 PM 24.3 °F 6.9 °F 16.3 °F 72% 29.63 in 10.0 mi NW 31.1 mph 39.1 mph N/A   Overcast
2:55 PM 21.4 °F 3.5 °F 11.7 °F 66% 29.66 in 7.0 mi NW 28.8 mph 36.8 mph N/A   Overcast
3:15 PM 19.4 °F 2.5 °F 8.6 °F 63% 29.68 in 10.0 mi NW 23.0 mph 36.8 mph N/A   Overcast
3:35 PM 17.8 °F -1.1 °F 6.4 °F 61% 29.70 in 10.0 mi WNW 27.6 mph 39.1 mph N/A   Scattered Clouds
3:55 PM 17.4 °F -0.2 °F 6.8 °F 63% 29.72 in 10.0 mi WNW 23.0 mph 32.2 mph N/A   Mostly Cloudy
4:15 PM 15.6 °F -4.0 °F 6.1 °F 66% 29.75 in 7.0 mi WNW 27.6 mph 34.5 mph N/A   Overcast
4:35 PM 14.0 °F -3.0 °F 4.3 °F 65% 29.77 in 7.0 mi WNW 18.4 mph 35.7 mph N/A   Overcast
4:55 PM 12.7 °F -4.6 °F 4.1 °F 68% 29.80 in 7.0 mi WNW 18.4 mph 33.4 mph N/A   Overcast
5:15 PM 11.7 °F -7.0 °F 3.9 °F 71% 29.83 in 4.0 mi NW 20.7 mph 32.2 mph N/A   Haze
5:35 PM 10.9 °F -6.5 °F 3.2 °F 71% 29.86 in 7.0 mi WNW 17.3 mph 25.3 mph N/A   Overcast
5:55 PM 10.2 °F -7.9 °F 4.8 °F 79% 29.88 in 2.5 mi NW 18.4 mph 24.2 mph N/A Snow Light Snow
6:15 PM 9.3 °F -10.5 °F -2.6 °F 59% 29.90 in 10.0 mi NW 21.9 mph 33.4 mph N/A   Overcast
6:35 PM 8.1 °F -13.0 °F -4.0 °F 58% 29.92 in 10.0 mi NW 24.2 mph 29.9 mph N/A   Overcast
6:55 PM 7.0 °F -13.1 °F -4.2 °F 60% 29.93 in 10.0 mi NW 20.7 mph 32.2 mph N/A   Overcast
7:15 PM 6.6 °F -14.1 °F -4.0 °F 62% 29.96 in 10.0 mi NW 21.9 mph 31.1 mph N/A   Overcast
7:35 PM 5.9 °F -15.9 °F -5.6 °F 59% 29.98 in 10.0 mi NNW 24.2 mph 35.7 mph N/A   Overcast
7:55 PM 5.7 °F -12.0 °F -3.8 °F 65% 30.00 in 10.0 mi WNW 15.0 mph 27.6 mph N/A   Overcast
8:15 PM 5.0 °F -14.7 °F -6.3 °F 60% 30.01 in 10.0 mi NW 18.4 mph 32.2 mph N/A   Scattered Clouds
8:35 PM 4.1 °F -17.9 °F -6.2 °F 63% 30.03 in 10.0 mi NNW 23.0 mph 34.5 mph N/A   Clear
8:55 PM 3.7 °F -14.6 °F -6.5 °F 62% 30.04 in 10.0 mi NNW 15.0 mph 25.3 mph N/A   Clear
9:15 PM 3.6 °F -14.8 °F -6.7 °F 62% 30.06 in 10.0 mi NW 15.0 mph 26.5 mph N/A   Clear
9:35 PM 3.2 °F -17.1 °F -6.7 °F 63% 30.07 in 10.0 mi NW 18.4 mph 29.9 mph N/A   Clear
9:55 PM 2.3 °F -19.3 °F -6.9 °F 66% 30.08 in 10.0 mi NW 20.7 mph 24.2 mph N/A   Clear
10:15 PM 2.3 °F -20.7 °F -7.1 °F 65% 30.10 in 10.0 mi NW 24.2 mph 32.2 mph N/A   Clear
10:35 PM 2.1 °F -19.0 °F -7.1 °F 66% 30.11 in 10.0 mi NW 19.6 mph 34.5 mph N/A   Clear
10:55 PM 1.8 °F -17.8 °F -7.6 °F 65% 30.13 in 10.0 mi NW 16.1 mph 25.3 mph N/A   Clear
11:15 PM 1.6 °F -18.0 °F -8.1 °F 64% 30.13 in 10.0 mi NNW 16.1 mph 31.1 mph N/A   Clear
11:35 PM 1.2 °F -16.4 °F -8.5 °F 64% 30.15 in 10.0 mi NNW 12.7 mph 26.5 mph N/A   Clear